Regional Weather Roundup
Issued by NWS Wakefield, VA

Home | Current Version | Previous Version | Text Only | Print | Product List | Glossary Off
Versions: 1 2 3 4 5 6 7 8 9 10 11 12 13 14 15 16 17 18 19 20 21 22 23 24 25 26 27 28 29 30 31 32 33 34 35 36 37 38 39 40 41 42 43 44 45 46 47 48 49 50

000
ASUS41 KAKQ 030115
RWRAKQ

REGIONAL WEATHER ROUNDUP
NATIONAL WEATHER SERVICE WAKEFIELD VA
900 PM EDT SUN AUG 02 2015

Note: "fair" indicates few or no clouds below 12,000 feet with no
significant weather and/or obstructions to visibility. * = Denotes
station may not report precipitation (e.g., rain,snow,etc.),
thunder or fog.

VAZ042-051-052>054-056-030200-
NORTHERN VIRGINIA

CITY           SKY/WX    TMP DP  RH WIND       PRES   REMARKS
WASH NATIONAL  PTCLDY    84  59  42 W9        29.92R
DULLES         PTCLDY    74  62  66 S5        29.92S
FORT BELVOIR   NOT AVBL
QUANTICO       NOT AVBL
FREDERICKSBRG* CLEAR     74  67  77 CALM      29.92R
STAFFORD*      CLEAR     70  65  84 CALM      29.97R
WARRENTON      CLEAR     68  65  93 CALM      29.92S
CULPEPER*      CLEAR     69  64  84 CALM      29.93S
MANASSAS*      CLEAR     73  66  78 CALM      29.92S
LEESBURG*      CLEAR     77  64  65 SW6       29.93S
WINCHESTER     CLEAR     77  63  61 S5        29.92F
FRONT ROYAL*   FAIR      72  63  73 S3        29.92S
LURAY*         FAIR      75  64  69 S3        29.95S
$$

VAZ048-049-060>072-079>083-030200-
CENTRAL AND SOUTH CENTRAL VIRGINIA

CITY           SKY/WX    TMP DP  RH WIND       PRES   REMARKS
RICHMOND       PTCLDY    77  63  61 CALM      29.93R
CHESTERFIELD*  FAIR      73  54  49 NW3       29.94S
PETERSBURG*    CLEAR     71  71 100 CALM      29.93S
HANOVER        CLEAR     71  65  81 CALM      29.95R
TAPPAHANNOCK*  CLEAR     73  68  86 CALM      29.93S
QUINTON*       FAIR      75  69  83 CALM      29.91S
CHARLOTTSVILLE CLEAR     72  64  76 CALM      29.94S
GORDONSVILLE*  FAIR      68  66  94 CALM      29.94R
ORANGE*        CLEAR     70  64  83 CALM      29.95R
LOUISA*        CLEAR     68  63  83 CALM      29.94R
BUMPASS*       FAIR      68  63  84 CALM      29.94R
FARMVILLE*     CLEAR     73  59  62 CALM      29.94R
CREWE*         FAIR     N/A N/A N/A CALM      29.94S
FORT PICKETT*  FAIR      71  64  78 CALM      29.94S
CHASE CITY*    FAIR      73  70  91 CALM      29.94S
CLARKSVILLE*   FAIR      73  64  73 CALM      29.94S
SOUTH HILL*    CLEAR     74  62  67 N3        29.99S
LAWRENCEVILLE* FAIR      73  66  78 CALM      29.92F
EMPORIA*       CLEAR     70  64  83 CALM      29.93F
$$

VAZ088>098-030200-
SOUTHEAST VIRGINIA

CITY           SKY/WX    TMP DP  RH WIND       PRES   REMARKS
NORFOLK        CLEAR     80  73  79 E5        29.92R
VIRGINIA BEACH PTCLDY    80  73  79 NE3       29.91R
NORFOLK NAVAL  MOCLDY    76  70  82 E3        29.94R
WEST POINT*    PTCLDY    76  68  77 CALM      29.92F
SALUDA*        FAIR      74  70  86 CALM      29.91S
NEWPORT NEWS   PTCLDY    74  69  85 CALM      29.92S
LANGLEY AFB    NOT AVBL
FORT EUSTIS    PTCLDY    75  69  79 E2        29.90S
WILLIAMSBURG*  PTCLDY    77  73  88 CALM      29.92S
HR EXEC AP*    FAIR      72  66  83 CALM      29.94R
FRANKLIN*      CLEAR     75  69  80 CALM      29.92S
WAKEFIELD      PTCLDY    74  70  87 CALM      29.92S
$$

VAZ020-022-025-037-045-030200-
WEST CENTRAL AND SOUTHWEST VIRGINIA

CITY           SKY/WX    TMP DP  RH WIND       PRES   REMARKS
STAUNTON*      CLEAR     75  58  56 CALM      29.99R
WAYNESBORO*    FAIR      72  58  61 W5        29.99R
HOT SPRINGS VA CLEAR     66  52  59 W9        30.09S
LYNCHBURG      CLEAR     68  61  78 CALM      29.98R
DANVILLE       CLEAR     70  64  81 CALM      29.95S
SOUTH BOSTON*  FAIR      72  66  81 CALM      29.94S
MARTINSVILLE   CLEAR     70  62  76 CALM      29.99S
ROANOKE        CLEAR     76  57  51 E5        29.99R
BLACKSBURG     CLEAR     67  58  73 CALM      30.05S
DUBLIN*          N/A     70  60  70 CALM      30.03S
MARION*        CLEAR     69  60  74 CALM      30.06S
HILLSVILLE*    CLEAR     70  57  63 E6        30.04S
RICHLANDS*     FAIR      72  58  61 CALM      30.03F
WISE*          CLEAR     72  54  53 CALM      30.04S
ABINGDON*      CLEAR     72  59  64 CALM      30.01R
$$

MDZ021>025-VAZ099-100-030200-
SOUTHERN MARYLAND AND THE DELMARVA PENINSULA

CITY           SKY/WX    TMP DP  RH WIND       PRES   REMARKS
PATUXENT RIVER PTCLDY    70  64  81 SW3       29.91R
BAY BRIDGE APT   N/A     81  59  47 SW5       29.91S
LEONARDTOWN    PTCLDY    72  61  68 CALM      29.94R
DOVER          MOCLDY    75  68  78 S5        29.89S
GEORGETOWN     PTCLDY    75  67  76 SW3       29.92R
EASTON         PTCLDY    77  64  65 CALM      29.95R
CAMBRIDGE      CLEAR     73  66  78 CALM      29.90F
SALISBURY      MOCLDY    76  71  85 CALM      29.91S
OCEAN CITY     MOCLDY    78  72  81 S3        29.91S
WALLOPS ISLAND MOCLDY    76  74  93 CALM      29.92S
ACCOMACK*      MOCLDY    73  73 100 CALM      29.92R
$$

NCZ012>017-030>032-030200-
NORTH CENTRAL AND EASTERN NORTH CAROLINA

CITY           SKY/WX    TMP DP  RH WIND       PRES   REMARKS
ROANOKE RAPIDS FAIR      75  63  64 CALM      29.92S
RALEIGH        PTCLDY    78  58  49 CALM      29.93S
ELIZABETH CITY PTCLDY    80  74  81 E6        29.92R
AHOSKIE*       CLEAR     75  66  73 CALM      29.92R
EDENTON*       LGT RAIN  80  71  74 CALM      29.91S
CURRITUCK*     PTCLDY    81  70  68 SE6G20    29.93R
KILL DEVIL HLS MOCLDY    83  75  76 SW7       29.92R
MANTEO         PTCLDY    82  76  80 SW9       29.92R
CAPE HATTERAS  CLEAR     80  74  81 SW14G24   29.93F
TARBORO*         N/A     77  68  74 S3        29.93R
GOLDSBORO      CLEAR     82  72  72 VRB5      29.91R
WASHINGTON     PTCLDY    81  73  76 S7        29.92S
GREENVILLE     CLEAR     82  73  74 SW9G17    29.93F
NEW BERN       PTCLDY    79  73  82 S8        29.95R
WILMINGTON     PTCLDY    78  71  79 S7        29.94S
$$

VAZ048-030200-
ELSEWHERE

CITY           SKY/WX    TMP DP  RH WIND       PRES   REMARKS
HARRISBURG PA  PTCLDY    80  62  54 S7        29.87F
BALTIMORE      PTCLDY    78  60  53 SW3       29.90R
ANNAPOLIS      CLEAR     79  59  50 SW3       29.90S
ANDREWS AFB    CLEAR     75  62  64 SW6       29.91S
PHILADELPHIA   PTCLDY    83  56  39 SW9       29.91R
HENDERSON NC   CLEAR     73  62  68 CALM      29.94S
GREENSBORO     PTCLDY    78  58  49 NE6       29.95R
ROCKY MOUNT    MOCLDY    83  61  47 SE5       29.92R
$$

VAZ100-030200-
MARINE

STATION/POSITION TIME  TEMP    WIND        PRES    WAVE   SWELL
                       AIR SEA DIR/SP/G            HT/PER HT/PER
                 (UTC) (F)     (DEG/KT/KT) (MB)    (FT/S) (FT/S)
BRANDYWINE LGT   0000   78 78  180/ 14/ 16 1012.7F
CAPE MAY NJ      0000   76 76  170/  5/  7 1012.4F
LEWES DE         0000   79 76  170/  4/  5 1012.4F
15NM E FENWICK I 0050   79 80  170/  8/ 10 1012.8S   2/ 7   2/ 7
OCEAN-CITY-INLET 0000   78 76  190/  5/  6 1011.9F
WACHAPREAGUE VA  0000   79 85  120/  2/  3 1013.1F
THOMAS POINT MD  0000   82 81  260/ 11/ 12 1013.0R
GOOSES REEF MD   0100   83 82  260/  8/  8 1014.0R
COVE POINT MD    0000   83     270/  4/  6 1013.3F
SOLOMONS ISLAND  0000      85                N/A
BISHOPS HEAD MD  0000   83 85  240/  6/  8 1011.8F
PINEY POINT MD   0000          270/  2/  3   N/A
POTOMAC MD       0100   83 84   CALM  /  2 1011.7S   0
CAMBRIDGE MD     0000   83 85  210/  3/  5 1011.8F
LEWISETTA VA     0000   84 85  210/  1/  2 1012.5S
RAPPAHANNOCK LGT 0000           70/  1/  2 1013.5F
STINGRAY PT      0100   82 83  160/  4/  6 1012.9F   0
YORK RVR RNG VA  0000   82      80/  4/  5 1012.4F
YORKTOWN VA      0000   82 85   70/  3/  4 1012.6F
JAMESTOWN VA     0100   78 86   40/  4/  4   N/A
DOMINION TERM VA 0000   82      70/  6/  8 1012.9R
KIPTOPEKE VA     0000      82  120/  3/  3   N/A
CHES BAY BRIDGE  0000   80 82   50/  5/  5 1012.5F
CAPE HENRY VA    0000   80      40/  6/  6   N/A
CHESAPEAKE LGHT  0000   81      60/  4/  4 1013.3F
WILLOUBY STN VA  0000   81      20/  5/  6 1013.7F
CAPE HENRY BUOY  0028      82                N/A     2/12   2/12
1ST LANDING BUOY 0100      82              1012.9R   2/ 4
CAPE CHARLES BUO 0026      80                N/A     2/12   2/12
OFFSHORE WE BUOY 0011      83                N/A     3/ 7   2/ 7
64NM E OF VA BCH 0050   81 81  210/ 10/ 12 1012.8R   3/12   2/12
DUCK PIER NC     0000   85 77  190/ 14/ 17 1011.8R
44100 DUCK FRF   0024      80                N/A     3/11   2/11
44056 DUCK FRF   0011      80                N/A     2/12   2/12
OREGON INLET NC  0000   83 86  200/ 20/ 24 1012.8S
HATTERAS NC      0000   81 82  230/ 15/ 19 1013.4R


USA.gov is the U.S. government's official web portal to all federal, state and local government web resources and services.